Location: Dürabuch
(48.2640°N, 11.2185°E)
Time: 22:03:58
(UTC+00:00)

Cosmos 1242 Rocket - Pass Details

Date: 23 May 2024
Orbit: 322 x 337 km, 81.1° (Epoch: 14 June)

Event Time Altitude Azimuth Distance (km) Brightness Sun altitude
Exits shadow 01:14:24 34° 158° (SSE) 629 2.8 -15.8°
Maximum altitude 01:15:24 54° 98° (E) 448 2.4 -15.8°
Drops below altitude 10° 01:18:18 10° 20° (NNE) 1,366 6.2 -15.5°
Sets 01:20:19 0° 16° (NNE) 2,223 7.5 -15.3°
